Previsão horária em Abramovo

Hoje, 9 Maio, Domingo

Tempo Temperatura Precipitação Vento Pressão Humidade
00:00 +2°C° 0 mm 2 m/s 750 mmHg 93%
01:00 +2°C° 0 mm 2 m/s 750 mmHg 93%
02:00 +2°C° 0 mm 2 m/s 751 mmHg 93%
03:00 +1°C° 0 mm 2 m/s 751 mmHg 93%
04:00 +2°C° 0 mm 1 m/s 751 mmHg 92%
05:00 +2°C° 0 mm 1 m/s 751 mmHg 92%
06:00 +4°C° 0 mm 1 m/s 752 mmHg 86%
07:00 +6°C° 0 mm 1 m/s 752 mmHg 80%
08:00 +7°C° 0 mm 2 m/s 752 mmHg 74%
09:00 +8°C° 0 mm 2 m/s 752 mmHg 67%
10:00 +10°C° 0 mm 3 m/s 752 mmHg 60%
11:00 +12°C° 0 mm 3 m/s 752 mmHg 53%
12:00 +12°C° 0 mm 3 m/s 752 mmHg 51%
13:00 +13°C° 0 mm 4 m/s 752 mmHg 49%
14:00 +14°C° 0 mm 4 m/s 752 mmHg 46%
15:00 +14°C° 0 mm 4 m/s 751 mmHg 49%
16:00 +14°C° 0 mm 4 m/s 751 mmHg 51%
17:00 +16°C° 0 mm 3 m/s 751 mmHg 53%
18:00 +13°C° 0 mm 3 m/s 751 mmHg 59%
19:00 +12°C° 0 mm 3 m/s 751 mmHg 65%
20:00 +11°C° 0 mm 3 m/s 751 mmHg 72%
21:00 +10°C° 0 mm 3 m/s 751 mmHg 74%
22:00 +9°C° 0 mm 3 m/s 751 mmHg 75%
23:00 +9°C° 0 mm 3 m/s 751 mmHg 77%

Amanhã, 10 Maio, Segunda-feira

Tempo Temperatura Precipitação Vento Pressão Humidade
00:00 +7°C° 0 mm 4 m/s 751 mmHg 79%
01:00 +7°C° 0 mm 4 m/s 751 mmHg 80%
02:00 +6°C° 0 mm 4 m/s 751 mmHg 81%
03:00 +6°C° 0 mm 4 m/s 751 mmHg 83%
04:00 +6°C° 0 mm 4 m/s 751 mmHg 84%
05:00 +6°C° 0 mm 4 m/s 751 mmHg 86%
06:00 +8°C° 0 mm 4 m/s 751 mmHg 79%
07:00 +9°C° 0 mm 5 m/s 752 mmHg 72%
08:00 +12°C° 0 mm 5 m/s 752 mmHg 66%
09:00 +14°C° 0 mm 6 m/s 752 mmHg 61%
10:00 +16°C° 0 mm 6 m/s 752 mmHg 56%
11:00 +17°C° 0 mm 7 m/s 751 mmHg 51%
12:00 +18°C° 0 mm 7 m/s 751 mmHg 51%
13:00 +20°C° 0 mm 7 m/s 751 mmHg 50%
14:00 +20°C° 0 mm 7 m/s 751 mmHg 49%
15:00 +20°C° 0 mm 7 m/s 751 mmHg 53%
16:00 +20°C° 0 mm 7 m/s 751 mmHg 56%
17:00 +20°C° 0 mm 6 m/s 750 mmHg 59%
18:00 +17°C° 0 mm 6 m/s 751 mmHg 63%
19:00 +16°C° 0 mm 5 m/s 751 mmHg 67%
20:00 +14°C° 0 mm 5 m/s 751 mmHg 71%
21:00 +14°C° 0 mm 5 m/s 751 mmHg 72%
22:00 +13°C° 0 mm 5 m/s 751 mmHg 72%
23:00 +12°C° 0 mm 5 m/s 751 mmHg 72%

Depois de amanhã, 11 Maio, Terça-feira

Tempo Temperatura Precipitação Vento Pressão Humidade
00:00 +12°C° 0 mm 5 m/s 751 mmHg 73%
01:00 +10°C° 0 mm 5 m/s 751 mmHg 75%
02:00 +10°C° 0 mm 5 m/s 751 mmHg 77%
03:00 +9°C° 0 mm 5 m/s 751 mmHg 77%
04:00 +9°C° 0 mm 5 m/s 751 mmHg 78%
05:00 +8°C° 0 mm 5 m/s 751 mmHg 78%
06:00 +10°C° 0 mm 6 m/s 751 mmHg 75%
07:00 +11°C° 0 mm 6 m/s 751 mmHg 71%
08:00 +12°C° 0 mm 7 m/s 751 mmHg 68%
09:00 +15°C° 0 mm 7 m/s 751 mmHg 63%
10:00 +16°C° 0 mm 8 m/s 751 mmHg 58%
11:00 +17°C° 0 mm 8 m/s 750 mmHg 53%
12:00 +18°C° 0 mm 8 m/s 750 mmHg 51%
13:00 +20°C° 0 mm 8 m/s 750 mmHg 49%
14:00 +20°C° 0 mm 7 m/s 750 mmHg 47%
15:00 +20°C° 0 mm 7 m/s 750 mmHg 49%
16:00 +20°C° 0 mm 7 m/s 749 mmHg 50%
17:00 +19°C° 0 mm 6 m/s 749 mmHg 52%
18:00 +17°C° 0 mm 6 m/s 749 mmHg 57%
19:00 +15°C° 0 mm 5 m/s 749 mmHg 61%
20:00 +13°C° 0 mm 5 m/s 749 mmHg 66%
21:00 +13°C° 0 mm 5 m/s 749 mmHg 69%
22:00 +12°C° 0 mm 5 m/s 749 mmHg 72%
23:00 +10°C° 0 mm 5 m/s 749 mmHg 74%

12 Maio, Quarta-feira

Tempo Temperatura Precipitação Vento Pressão Humidade
00:00 +11°C° 0 mm 4 m/s 748 mmHg 77%
01:00 +11°C° 0 mm 4 m/s 748 mmHg 79%
02:00 +11°C° 0 mm 4 m/s 748 mmHg 81%
03:00 +10°C° 0 mm 4 m/s 748 mmHg 85%
04:00 +10°C° 0 mm 4 m/s 747 mmHg 88%
05:00 +10°C° 0 mm 4 m/s 747 mmHg 92%
06:00 +10°C° 0 mm 5 m/s 747 mmHg 86%
07:00 +11°C° 0 mm 6 m/s 747 mmHg 80%
08:00 +14°C° 0 mm 6 m/s 747 mmHg 74%
09:00 +15°C° 0 mm 6 m/s 747 mmHg 67%
10:00 +16°C° 0 mm 7 m/s 747 mmHg 60%
11:00 +17°C° 0 mm 7 m/s 746 mmHg 53%
12:00 +17°C° 0 mm 7 m/s 746 mmHg 53%
13:00 +18°C° 0 mm 7 m/s 746 mmHg 52%
14:00 +19°C° 0 mm 6 m/s 745 mmHg 51%
15:00 +16°C° 0 mm 6 m/s 745 mmHg 56%
16:00 +15°C° 0 mm 6 m/s 745 mmHg 60%
17:00 +13°C° 0 mm 6 m/s 745 mmHg 65%
18:00 +12°C° 0.2 mm 5 m/s 745 mmHg 73%
19:00 +10°C° 0.2 mm 5 m/s 744 mmHg 81%
20:00 +8°C° 0.2 mm 5 m/s 744 mmHg 89%
21:00 +8°C° 0 mm 5 m/s 744 mmHg 90%
22:00 +8°C° 0 mm 4 m/s 744 mmHg 91%
23:00 +8°C° 0 mm 4 m/s 744 mmHg 92%

13 Maio, Quinta-feira

Tempo Temperatura Precipitação Vento Pressão Humidade
00:00 +7°C° 0 mm 4 m/s 744 mmHg 93%
01:00 +7°C° 0 mm 4 m/s 743 mmHg 94%
02:00 +6°C° 0 mm 5 m/s 743 mmHg 95%
03:00 +6°C° 0 mm 4 m/s 743 mmHg 94%
04:00 +6°C° 0 mm 4 m/s 742 mmHg 94%
05:00 +6°C° 0 mm 4 m/s 742 mmHg 93%
06:00 +7°C° 0 mm 5 m/s 742 mmHg 90%
07:00 +7°C° 0 mm 5 m/s 742 mmHg 86%
08:00 +8°C° 0 mm 5 m/s 741 mmHg 83%
09:00 +9°C° 0.2 mm 5 m/s 741 mmHg 79%
10:00 +10°C° 0.2 mm 5 m/s 741 mmHg 76%
11:00 +10°C° 0.2 mm 5 m/s 741 mmHg 72%
12:00 +10°C° 0.3 mm 5 m/s 740 mmHg 73%
13:00 +10°C° 0.3 mm 5 m/s 740 mmHg 73%
14:00 +10°C° 0.3 mm 5 m/s 740 mmHg 74%
15:00 +9°C° 0.1 mm 5 m/s 740 mmHg 77%
16:00 +10°C° 0.1 mm 4 m/s 740 mmHg 80%
17:00 +8°C° 0.1 mm 4 m/s 740 mmHg 82%
18:00 +9°C° 0 mm 3 m/s 739 mmHg 85%
19:00 +9°C° 0 mm 3 m/s 739 mmHg 88%
20:00 +8°C° 0 mm 2 m/s 739 mmHg 91%
21:00 +8°C° 0 mm 2 m/s 739 mmHg 91%
22:00 +8°C° 0 mm 2 m/s 739 mmHg 92%
23:00 +9°C° 0 mm 1 m/s 739 mmHg 92%

14 Maio, Sexta-feira

Tempo Temperatura Precipitação Vento Pressão Humidade
00:00 +9°C° 0 mm 1 m/s 739 mmHg 93%
01:00 +7°C° 0 mm 2 m/s 739 mmHg 94%
02:00 +7°C° 0 mm 2 m/s 739 mmHg 95%
03:00 +6°C° 0 mm 2 m/s 739 mmHg 96%
04:00 +6°C° 0 mm 2 m/s 739 mmHg 96%
05:00 +5°C° 0 mm 2 m/s 740 mmHg 96%
06:00 +7°C° 0 mm 2 m/s 740 mmHg 89%
07:00 +8°C° 0 mm 2 m/s 740 mmHg 83%
08:00 +10°C° 0 mm 3 m/s 740 mmHg 76%
09:00 +12°C° 0 mm 3 m/s 740 mmHg 71%
10:00 +13°C° 0 mm 3 m/s 741 mmHg 65%
11:00 +15°C° 0 mm 4 m/s 741 mmHg 60%
12:00 +15°C° 0 mm 4 m/s 741 mmHg 60%
13:00 +15°C° 0 mm 4 m/s 741 mmHg 60%
14:00 +17°C° 0 mm 4 m/s 741 mmHg 59%
15:00 +16°C° 0 mm 3 m/s 741 mmHg 61%
16:00 +16°C° 0 mm 3 m/s 742 mmHg 63%
17:00 +16°C° 0 mm 3 m/s 742 mmHg 65%
18:00 +14°C° 0 mm 3 m/s 742 mmHg 73%
19:00 +13°C° 0 mm 2 m/s 742 mmHg 81%
20:00 +12°C° 0 mm 2 m/s 742 mmHg 89%
21:00 +10°C° 0 mm 2 m/s 743 mmHg 91%
22:00 +10°C° 0 mm 2 m/s 743 mmHg 92%
23:00 +10°C° 0 mm 1 m/s 743 mmHg 94%
Mostrar mais

Necessitamos do seu Consentimento

A Meteoprog e os seus Fornecedores de Serviços podem armazenar e aceder a dados pessoais como cookies, identificadores do dispositivo ou outras tecnologias semelhantes existentes no seu dispositivo e processar estes dados para personalizar conteúdos e anúncios, assim como funcionalidades nas redes sociais e análise de tráfego.

  • Armazenar e/ou aceder a informações no seu dispositivo

    Os cookies, identificadores do dispositivo ou outras informações podem ser armazenados ou acedidos no seu dispositivo, para os fins acima indicados.

  • Anúncios e conteúdos personalizados, medição de anúncios e conteúdos, dados sobre o público-alvo e desenvolvimento de produtos

    Os anúncios e os conteúdos podem ser personalizados com base num perfil. Podem ser adicionados dados adicionais para uma maior personalização dos anúncios e dos conteúdos. A eficácia dos anúncios e dos conteúdos pode ser medida. Podem ser obtidas informações sobre o público que visualizou os anúncios e os conteúdos. Estes dados podem ser usados para desenvolver ou melhorar sistemas, softwares ou a experiência do utilizador.

Ao clicar em "Eu concordo”, permitirá o uso de cookies, identificadores do dispositivo e web beacons mencionados ou outras tecnologias semelhantes. As configurações do navegador do seu dispositivo podem ser alteradas.

Para certos fins, podem ser invocados interesses legítimos ao invés de consentimento. Pode ler mais informação sobre este assunto na nossa Política de Privacidade e Cookies.